Starlink 34203

operational
NORAD ID: 64246 Int'l Des: 2025-119 Owner: SPXS Country: US Constellation: starlink
LEOCIRCULAR

About Starlink 34203

Description loading...

Live Position

Loading 3D Globe...

Upcoming Passes

Altitude History

Altitude vs Time

uPlot chart will show altitude changes over time

Two-Line Element Set

1 64246U 25119P 25353.54726856 .00020986 00000-0 76956-3 0 9992
2 64246 43.0002 39.5655 0001350 283.6746 76.3956 15.27596512 31925
Epoch: Dec 19, 2025 • Age: 11 hours

Current Status

Altitude 486.1 km
Velocity 7.63 km/s
Sub-Earth Point 39.84°N, 4.59°E
Launch Date Jun 3, 2025
Age 0.5 years
Type internet

Technical Details

Classification Payload
Mass 575.00 kg
Dry Mass 530.00 kg
Total Mass 575.00 kg
Length 0.30 m
Diameter 4.10 m
Span 29.00 m
Shape Box + pan
Manufacturer SPXS
Bus Type Starlink V2MO
Phase Status In Orbit
Owner/State SPXS/US

Large Constellations

Loading constellations...